Location: Shaftesbury Settlement
(56.1590°N, 117.4369°W)
Time: 03:02:15
(UTC+00:00)

ISS - Visible Passes

Search period start: 25 August 2019 00:00
Search period end: 04 September 2019 00:00
Orbit: 410 x 421 km, 51.6° (Epoch: 25 August)

Date Brightness Start Highest point End Pass type
(mag) Time Alt. Az. Time Alt. Az. Time Alt. Az.
31 Aug -1.7 12:07:05 10° SSW 12:09:31 19° SSE 12:11:59 10° ESE visible
01 Sep -1.4 11:19:07 10° S 11:20:54 15° SSE 11:22:50 10° ESE visible
02 Sep -1.2 10:32:13 11° SE 10:32:19 11° SE 10:33:03 10° SE visible
02 Sep -2.3 12:05:20 10° SW 12:08:15 28° SSE 12:11:10 10° ESE visible
03 Sep -2.1 11:18:10 18° SSW 11:19:33 23° SSE 11:22:15 10° ESE visible
